Weather History for Mackall AAF, NC

Change the Weather History Date:

Sunday, December 2, 2012

  Actual Average Record
Temperature  
Mean Temperature 51 °F -  
Max Temperature 68 °F 60 °F 75 °F (1998)
Min Temperature 34 °F 35 °F 15 °F (1999)
Degree Days  
Heating Degree Days 14    
Growing Degree Days 1 (Base 50)    
Moisture  
Dew Point 45 °F    
Average Humidity 87    
Maximum Humidity 100    
Minimum Humidity 51    
Precipitation  
Precipitation 0.00 in - - ()
Sea Level Pressure  
Sea Level Pressure 30.36 in    
Wind  
Wind Speed 4 mph (SW)    
Max Wind Speed 9 mph    
Max Gust Speed 14 mph    
Visibility 9 miles    
Events      
Averages and records for this station are not official NWS values.
T = Trace of Precipitation, MM = Missing Value Source: NWS Daily Summary

Daily Weather History Graph

Daily Weather History Graph

Search for Another Location

Airport:

Trip Planner

Search our weather history database for the weather conditions in past years. The results will help you decide how hot, cold, wet, or windy it might be!

Date:

Astronomy

Dec. 02, 2012 Rise Set
Actual Time 7:09 AM EST 5:06 PM EST
Civil Twilight 6:41 AM EST 5:33 PM EST
Nautical Twilight 6:09 AM EST 6:05 PM EST
Astronomical Twilight 5:39 AM EST 6:35 PM EST
Moon 8:48 PM EST (12/2) 10:00 AM EST (12/2)
Length of Visible Light 10h 52m
Length of Day
9h 57m
Waning Gibbous, 86% of the Moon is Illuminated
Dec 2
Waning Gibbous
Dec 6
Last Quarter
Dec 13
New
Dec 20
First Quarter
Dec 28
Full

Hourly Weather History & Observations

Time (EST) Temp. Windchill Dew Point Humidity Pressure Visibility Wind Dir Wind Speed Gust Speed Precip Events Conditions
12:55 AM 37.6 °F 35.1 °F 36.7 °F 97% 30.39 in 7.0 mi NNW 3.5 mph - N/A   Clear
1:55 AM 37.0 °F - 36.3 °F 97% 30.40 in 7.0 mi Variable 1.2 mph - N/A   Clear
2:55 AM 35.6 °F 32.8 °F 35.2 °F 99% 30.40 in 8.0 mi NW 3.5 mph - N/A   Clear
3:55 AM 35.6 °F - 34.9 °F 97% 30.39 in 10.0 mi NW 2.3 mph - N/A   Clear
4:55 AM 35.4 °F - 34.9 °F 98% 30.38 in 9.0 mi NNW 2.3 mph - N/A   Clear
5:55 AM 34.9 °F - 34.9 °F 100% 30.40 in 8.0 mi North - - N/A   Clear
6:00 AM 35.6 °F - 35.6 °F 100% 30.39 in 9.0 mi North - - N/A   Partly Cloudy
6:10 AM 35.6 °F - 35.6 °F 100% 30.40 in 10.0 mi WNW 1.2 mph - N/A   Mostly Cloudy
6:14 AM 35.6 °F - 35.6 °F 100% 30.40 in 10.0 mi West 2.3 mph - N/A   Mostly Cloudy
6:55 AM 37.6 °F - 36.9 °F 97% 30.41 in 8.0 mi NW 2.3 mph - N/A   Mostly Cloudy
7:55 AM 39.9 °F - 39.2 °F 97% 30.42 in 5.0 mi North 2.3 mph - N/A   Mostly Cloudy
8:55 AM 44.1 °F - 43.0 °F 96% 30.42 in 5.0 mi East 1.2 mph - N/A   Mostly Cloudy
9:55 AM 48.4 °F - 45.7 °F 90% 30.43 in 10.0 mi NNW 2.3 mph - N/A   Mostly Cloudy
10:55 AM 55.2 °F - 48.9 °F 79% 30.40 in 10.0 mi Variable 2.3 mph - N/A   Mostly Cloudy
11:55 AM 64.9 °F - 48.0 °F 54% 30.37 in 10.0 mi South 8.1 mph - N/A   Mostly Cloudy
12:55 PM 67.3 °F - 48.6 °F 51% 30.34 in 10.0 mi SSW 6.9 mph - N/A   Mostly Cloudy
1:55 PM 68.4 °F - 49.8 °F 51% 30.31 in 10.0 mi SSW 8.1 mph 13.8 mph N/A   Mostly Cloudy
2:55 PM 67.6 °F - 52.3 °F 58% 30.30 in 10.0 mi South 9.2 mph - N/A   Scattered Clouds
3:55 PM 66.9 °F - 53.4 °F 62% 30.30 in 10.0 mi SSW 9.2 mph - N/A   Scattered Clouds
5:55 PM 56.8 °F - 52.2 °F 84% 30.30 in 10.0 mi South 4.6 mph - N/A   Clear
6:55 PM 57.0 °F - 53.1 °F 87% 30.30 in 10.0 mi South 3.5 mph - N/A   Clear
7:55 PM 53.8 °F - 52.2 °F 94% 30.30 in 10.0 mi South 6.9 mph - N/A   Clear
8:55 PM 56.7 °F - 54.0 °F 91% 30.30 in 10.0 mi South 6.9 mph - N/A   Clear
9:55 PM 54.9 °F - 53.1 °F 94% 30.30 in 10.0 mi South 6.9 mph - N/A   Clear
10:55 PM 55.6 °F - 53.6 °F 93% 30.30 in 10.0 mi SSW 6.9 mph - N/A   Scattered Clouds
11:55 PM 55.2 °F - 53.6 °F 94% 30.30 in 10.0 mi SSW 6.9 mph - N/A   Clear